World > North America > United States > Illinois

Hourly Crainville, IL Regional Weather

Feedback E-mail the Weather

Quick WX

Crainville, IL Weather Maps

°F °C°F °C
Crainville Weather Map
UTC Time: 7/3/2022, 08:12
Your Time:

Crainville, IL Regional Weather

Expires:202207030900;;597092
ASUS43 KLOT 030809
RWRIL 

ILLINOIS REGIONAL WEATHER ROUNDUP
NATIONAL WEATHER SERVICE CHICAGO/ROMEOVILLE IL
300 AM CDT SUN JUL 03 2022

NOTE: "FAIR" INDICATES FEW OR NO CLOUDS BELOW 12,000 FEET WITH NO
SIGNIFICANT WEATHER AND/OR OBSTRUCTIONS TO VISIBILITY.

* THESE STATIONS ARE NOT UNDER NWS QUALITY CONTROL. THEY ALSO MAY NOT
  REPORT WEATHER SUCH AS PRECIPITATION OR FOG.


ILZ064>066-069>071-074>076-080>082-084>086-088>090-092>094-030900-
SOUTH-CENTRAL ILLINOIS
  
CITY           SKY/WX    TMP DP  RH WIND       PRES   REMARKS
CARBONDALE     CLOUDY    74  74 100 CALM      30.04R FOG              
EFFINGHAM*     CLOUDY    72  58  62 CALM      30.07S                  
MARION         CLOUDY    73  73 100 E3        30.04S FOG              
MT. VERNON     CLOUDY   N/A N/A N/A CALM      30.05S                  
CENTRALIA*     MOCLDY    73  66  80 NE5       30.04S                  
SALEM*         CLOUDY    73  69  89 CALM      30.05S                  
METROPOLIS*    MOCLDY    75  74  96 NE3       30.02S                  
$$


SKY/WX - Weather  TMP - Temperature  DP - Dew Point  RH - Humidity
WIND - Wind Direction/Speed PRES - Barometric Pressure VSB - Visibility
WCI - Wind Chill Index E13G22 Wind - East Wind 13 mph/Gusts of 22 mph

Trending Headlines

Crainville Radar Loop



Crainville Quick Facts


National Two Day Weather Forecast


E-mail the Crainville Weather Forecast

Voice your opinion or tell us about page issues...